Other Surface Observations
Issued by NWS Tucson, AZ

Home | Current Version | Previous Version | Text Only | Print | Product List | Glossary On
Versions: 1 2 3 4 5 6 7 8 9 10 11 12 13 14 15 16 17 18 19 20 21 22 23 24 25 26 27 28 29 30 31 32 33 34 35 36 37 38 39 40 41 42 43 44 45 46 47 48 49 50
000
SXUS55 KTWC 230116
OSOTWC

WEATHER ROUNDUP FOR SOUTHEAST ARIZONA
NATIONAL WEATHER SERVICE TUCSON AZ
615 PM MST WED OCT 22 2014

AZZ504>506-514-230215-
LOCATION       SKY/WX    TMP DP  RH WIND       PRES   REMARKS
TUCSON         CLEAR     83  45  26 N8        29.99R
DAVIS-MONTHAN  CLEAR     80  46  30 N7        29.98R
CHILDRENS PARK N/A       87  46  24 NW2               PIMA CO DEQ
ALVERNON/22ND  N/A      N/A N/A N/A N/A               PIMA CO DEQ
CHERRY/GLENN   N/A      N/A N/A N/A N/A               PIMA CO DEQ
TANGERINE      N/A       86 N/A N/A NW8               PIMA CO DEQ
CONTL RANCH    N/A       87  46  24 NW8               PIMA CO DEQ
GRANT/1ST      N/A       87  45  23 NW3               PIMA CO DEQ
CRAYCROFT/22ND N/A      N/A N/A N/A N/A               PIMA CO DEQ
GOLFLINKS/KOLB N/A       86  45  24 NW4               PIMA CO DEQ
AJO/12TH       N/A       86  43  22 N3                PIMA CO DEQ
SAGUARO EAST   N/A      N/A N/A N/A N/A               PIMA CO DEQ
FAIRGROUNDS    N/A       84 N/A N/A NW7               PIMA CO DEQ
SAGUARO        N/A       85  46  26 W4                *SABINO CYN
SAN CARLOS     N/A       83  46  27 NW3               *SAN CARLOS
GREEN VALLEY   N/A       85  42  22 NE4               PIMA CO DEQ
HORSE CAMP CYN N/A       78  48  35 N6G13             *ARAVAIPA CYN
RINCON MTNS    N/A       55  40  57 NE2               *NR MANNING CAMP
$$

AZZ509>511-230215-
LOCATION       SKY/WX    TMP DP  RH WIND       PRES   REMARKS
SAFFORD        CLEAR     76  49  38 CALM      30.01R
STRAY HORSE    N/A       60  41  49 SW4               *
TRAIL CABIN    N/A       62  43  49 S3                *N OF GRANVILLE
BLACK HILLS    N/A       74  47  39 S4                *N OF FT THOMAS
DRY LAKE       N/A       57  44  62 SW3               *NATANES MTNS
NOON CREEK     N/A       62  48  60 W8                *PINALENO MTNS
COLUMBINE      N/A       51  39  63 S4G11             *PINALENO MTNS
GUTHRIE        N/A       67  43  41 S4                *SW OF GUTHRIE
$$

AZZ502-503-513-230215-
LOCATION       SKY/WX    TMP DP  RH WIND       PRES   REMARKS
NOGALES        CLEAR     75  43  31 N3        30.05R
SELLS          N/A       85  48  28 N7G12             *
SASABE         N/A       83  39  21 NE3G16            *ALTAR VLY
HOPKINS        N/A       67  45  45 N6G11             *SANTA RITA MTNS
CARR CYN       N/A       60  44  56 S3                *W OF HEREFORD
$$

AZZ507-508-512-230215-
LOCATION       SKY/WX    TMP DP  RH WIND       PRES   REMARKS
SIERRA VISTA   CLEAR     72  41  33 E5        30.11R
DOUGLAS        CLEAR     72  44  36 SW6       30.08R
EMPIRE MTNS    N/A       70  39  32 NW3               *LAS CIENEGAS NCA
MULESHOE RANCH N/A       76  41  29 NW5G12            *PRESERVE
HEADQUARTERS   N/A       66  50  57 E4G10             *CHIRICAHUA MTNS
$$

.............................NOTES.............................
THIS IS AN AUTOMATED COLLECTIVE WITH MINIMAL QUALITY CONTROL.
PIMA CO DEQ SITES HAVE NONSTANDARD WIND SENSOR HEIGHTS.
PIMA CO DEQ SITES DO NOT REPORT WIND GUSTS.
* INDICATES WIND SENSORS LOCATED AT 20 FEET INSTEAD OF 33 FEET.
..............................KEY..............................
SKY/WX - SKY CONDITION/WEATHER
TMP    - TEMPERATURE IN FAHRENHEIT
DP     - DEWPOINT IN FAHRENHEIT
RH     - RELATIVE HUMIDITY IN PERCENT
WIND   - DIRECTION AND SPEED IN MILES PER HOUR (MPH)
VRB    - VARIABLE WIND DIRECTION
PRES   - MEAN SEA LEVEL PRESSURE IN INCHES OF MERCURY
         F - FALLING PRESSURE   R - RISING PRESSURE
         S - STEADY PRESSURE
VSB    - VISIBILITY IN MILES
HX     - HEAT INDEX IN FAHRENHEIT
WCI    - WIND CHILL INDEX IN FAHRENHEIT
N/A    - NOT AVAILABLE
AFB    - AIR FORCE BASE
         DAVIS-MONTHAN IS DAVIS-MONTHAN AIR FORCE BASE
CYN    - CANYON
MTNS   - MOUNTAINS
NCA    - NATIONAL CONSERVATION AREA
NR     - NEAR
VLY    - VALLEY
CONTL  - CONTINENTAL
PIMA CO DEQ - PIMA COUNTY DEPT OF ENVIRONMENTAL QUALITY



USA.gov is the U.S. government's official web portal to all federal, state and local government web resources and services.